Flag for Canada Weather past 2 weeks in Inuvik, Northwest Territories, Canada

Now
1 °F

Overcast.


Feels Like: -8 °F
Forecast: -3 / 4 °F
Wind: 5 mph from West

Location: Inuvik

Current Time: Dec 18, 2014 at 3:01:52 AM

Latest Report: Dec 18, 2014 at 2:00 AM


Visibility: 15 mi

Pressure: 29.79 "Hg

Humidity: 85%

Dew point: -2 °F

Location of InuvikLocation

Historic Weather in Inuvik — Graph

°F

Inuvik temperature yesterday

Maximum temperature yesterday: 5 °F (at 5:00 AM)
Minimum temperature yesterday: -2 °F (at 2:00 PM)
Average temperature yesterday: 1 °F

Past Weeks' High & Low Weather Summary

 TemperatureHumidityPressure
High5 °F (Dec 17, 5:00 AM)92% (Dec 17, 4:00 AM)30.40 "Hg (Dec 17, 4:00 AM)
Low-35 °F (Dec 10, 8:00 AM)66% (Dec 10, 9:00 AM)29.62 "Hg (Dec 15, 6:00 AM)
Average-12 °F77%29.99 "Hg
* Reported Dec 3 2:00 AM — Dec 18 2:00 AM, Inuvik, Weather by CustomWeather, © 2014

Note: Actual official high and low records may vary slightly from our data, if they occured in-between our weather recording intervals... More about our weather records

Advertising

Inuvik weather history for previous 24 hours

 ConditionsComfort  
Time TempWeatherWind HumidityBarometerVisibility
2:00 AM
Dec 18
1 °FOvercast.5 mph85%29.79 "Hg15 mi
1:00 AM1 °FOvercast.3 mph85%29.78 "Hg15 mi
12:00 AM0 °FOvercast.3 mph84%29.78 "Hg15 mi
11:00 PM
Dec 17
0 °FLight snow. Mostly cloudy.2 mph84%29.78 "Hg15 mi
10:00 PM0 °FLight snow. Mostly cloudy.2 mph84%29.77 "Hg15 mi
9:52 PM0 °FLight snow. Mostly cloudy.No wind84%29.77 "Hg15 mi
9:00 PM0 °FLight snow. Mostly cloudy.2 mph84%29.77 "Hg15 mi
8:00 PM0 °FLight snow. Overcast.No wind84%29.76 "Hg15 mi
7:51 PM0 °FLight snow. Overcast.No wind84%29.76 "Hg15 mi
7:00 PM0 °FLight snow. Mostly cloudy.No wind84%29.77 "Hg15 mi
6:00 PM0 °FLight snow. Mostly cloudy.3 mph78%29.76 "Hg15 mi
5:00 PM0 °FOvercast.2 mph84%29.75 "Hg15 mi
4:00 PM0 °FLow clouds.2 mph84%29.75 "Hg15 mi
3:00 PM0 °FLow clouds.No wind78%29.75 "Hg15 mi
2:00 PM-2 °FMostly cloudy.2 mph84%29.74 "Hg15 mi
1:00 PM0 °FCloudy.2 mph84%29.74 "Hg10 mi
12:00 PM1 °FCloudy.3 mph78%29.73 "Hg10 mi
11:00 AM1 °FLight snow. Overcast.3 mph92%29.73 "Hg10 mi
10:00 AM3 °FSnow flurries. Overcast.2 mph85%29.72 "Hg6 mi
9:00 AM3 °FSnow flurries. Overcast.2 mph85%29.73 "Hg6 mi
8:00 AM3 °FIce fog.2 mph85%29.73 "Hg2 mi
7:00 AM3 °FIce fog.3 mph92%29.73 "Hg1 mi
6:00 AM3 °FIce fog.3 mph92%29.73 "Hg1 mi
5:46 AM3 °FIce fog.5 mph92%29.73 "Hg1 mi
5:00 AM5 °FIce fog.3 mph85%29.73 "Hg3 mi
4:00 AM3 °FOvercast.5 mph92%29.74 "Hg8 mi
3:00 AM3 °FOvercast.3 mph85%29.75 "Hg15 mi
Weather by CustomWeather, © 2014

See weather overviewHow to use our weather pages